[[{"header":{"parameterUnit":"m.s-1","parameterCategory":2,"la1":30.2992,"la2":30.254,"lo1":-89.0895,"lo2":-89.0443,"dy":0.0025,"dx":0.0025,"nx":19,"ny":19,"refTime":"2026-04-08T09:00:00:Z","depth":"0","parameterNumber":2,"parameterNumberName":"U-component_of_CURRENTS"},"data":[0,0,0,0.2003,0.2003,0.2031,0.2031,0.2045,0.2045,0,0,0,0,0,0,0,0,0,0,0,0.1988,0.1988,0.2002,0.2003,0.2031,0.2031,0.2045,0.2045,0,0,0,0,0,0,0,0,0,0,0,0.1988,0.1988,0.1989,0.2004,0.2031,0.2031,0.2045,0.2027,0,0,0,0,0,0,0,0,0,0,0.2002,0.1991,0.1988,0.1989,0.2004,0.2031,0.2031,0.2026,0.2028,0.2029,0,0.2038,0,0.2049,0.2047,0.2047,0,0,0,0.1994,0.1989,0.2004,0.1989,0.2004,0.2031,0.2016,0.2028,0.203,0.2032,0.2039,0.2039,0.2049,0.2047,0.2047,0.2104,0.2105,0,0,0.1992,0.1985,0.2003,0.2006,0.2017,0.2015,0.2017,0.2029,0.2029,0.2039,0.204,0.2049,0.2047,0.2047,0.2104,0.2104,0,0,0,0.1994,0.1983,0.1998,0.2005,0.2015,0.2016,0.2018,0.2028,0.2035,0.204,0.2049,0.2047,0.2047,0.2103,0.2104,0.2143,0,0,0,0.1993,0.1986,0.1997,0.1992,0.2015,0.2024,0.2017,0.2034,0.2036,0.2049,0.2047,0.2047,0.2103,0.2104,0.2141,0.2155,0,0,0,0.1986,0.1985,0.1991,0.1991,0.2009,0.2025,0.2032,0.2035,0.2042,0.2047,0.2047,0.2102,0.2103,0.2139,0.2151,0.2198,0,0,0,0.1971,0.1979,0.1991,0.2008,0.2009,0.2042,0.2032,0.2048,0.2053,0.2047,0.2103,0.2104,0.2138,0.2149,0.2195,0.2185,0.2195,0,0,0.1973,0.1979,0.1992,0.2003,0.2032,0.2037,0.2077,0.2076,0.2073,0.2094,0.2096,0.2142,0.2151,0.2197,0.2251,0.2259,0,0,0,0.1987,0.1992,0.2005,0.2025,0.2054,0.2084,0.2093,0.2108,0.2134,0.2084,0.2154,0.2159,0.2187,0.2176,0.2183,0.2196,0.2109,0.2109,0.2109,0.1957,0.1985,0.2005,0.2041,0.2071,0.2118,0.2152,0.2176,0.2165,0.2189,0.22,0.2274,0.2263,0.2268,0.2283,0.2213,0.2213,0.2213,0.2213,0.1955,0.1958,0.2007,0.2035,0.2085,0.2126,0.2204,0.2221,0.2287,0.2254,0.2279,0.2229,0.2278,0.229,0.2216,0.2216,0.2215,0.2215,0.2215,0.1919,0.1922,0.1953,0.1996,0.2051,0.2124,0.2196,0.2261,0.2315,0.2352,0.2344,0.2343,0.2346,0.2367,0.2367,0.2367,0.2367,0.2368,0.2368,0.1857,0.1888,0.1896,0.195,0.1978,0.2053,0.2185,0.2259,0.2361,0.239,0.239,0.2378,0.2321,0.2306,0.2372,0.2371,0.2371,0.237,0.237,0.1787,0.1802,0.1814,0.1835,0.1903,0.1926,0.209,0.2254,0.2356,0.2407,0.2455,0.2416,0.2405,0.2398,0.2386,0.2469,0.2469,0.2469,0.2469,0.1722,0.1738,0.1734,0.1747,0.1789,0.1861,0.1936,0.211,0.2347,0.2438,0.2505,0.2465,0.246,0.2449,0.2442,0.2429,0.2522,0.2522,0.2522,0.1667,0.1685,0.1653,0.1682,0.1721,0.1776,0.1792,0.1923,0.23,0.2526,0.2532,0.2529,0.2471,0.2462,0.244,0.2429,0.2405,0,0]},{"header":{"parameterUnit":"m.s-1","parameterCategory":2,"la1":30.2992,"la2":30.254,"lo1":-89.0895,"lo2":-89.0443,"dy":0.0025,"dx":0.0025,"nx":19,"ny":19,"refTime":"2026-04-08T09:00:00:Z","depth":"0","parameterNumber":3,"parameterNumberName":"V-component_of_CURRENTS"},"data":[0,0,0,-0.0171,-0.0172,-0.0212,-0.0212,-0.0274,-0.0275,0,0,0,0,0,0,0,0,0,0,0,-0.0155,-0.0156,-0.0171,-0.0172,-0.0212,-0.0212,-0.0274,-0.0275,0,0,0,0,0,0,0,0,0,0,0,-0.0155,-0.0156,-0.0156,-0.0172,-0.0212,-0.0212,-0.0274,-0.0243,0,0,0,0,0,0,0,0,0,0,-0.0204,-0.0182,-0.0155,-0.0156,-0.0172,-0.0212,-0.0212,-0.0242,-0.0245,-0.0257,0,-0.0257,0,-0.0265,-0.0279,-0.0279,0,0,0,-0.018,-0.0179,-0.0191,-0.0156,-0.0172,-0.0212,-0.0196,-0.0243,-0.0247,-0.0262,-0.0258,-0.026,-0.0266,-0.0279,-0.0279,-0.0304,-0.0304,0,0,-0.0177,-0.0164,-0.0188,-0.0193,-0.0175,-0.0195,-0.0197,-0.0246,-0.0246,-0.0258,-0.0261,-0.0267,-0.0279,-0.028,-0.0304,-0.0304,0,0,0,-0.0166,-0.0163,-0.0174,-0.0191,-0.0196,-0.0196,-0.0198,-0.0244,-0.0247,-0.0262,-0.0268,-0.028,-0.028,-0.0304,-0.0304,-0.0242,0,0,0,-0.0165,-0.0156,-0.0172,-0.0166,-0.0195,-0.0218,-0.0195,-0.0244,-0.025,-0.0267,-0.028,-0.0281,-0.0304,-0.0304,-0.0244,-0.0191,0,0,0,-0.0155,-0.0155,-0.0157,-0.0165,-0.0179,-0.0218,-0.0224,-0.0246,-0.0253,-0.0279,-0.0281,-0.0304,-0.0304,-0.0246,-0.0196,-0.0153,0,0,0,-0.0145,-0.0132,-0.0157,-0.0145,-0.0178,-0.0185,-0.0224,-0.0238,-0.0256,-0.028,-0.0304,-0.0304,-0.0246,-0.0198,-0.0155,-0.0073,-0.0054,0,0,-0.0121,-0.0129,-0.0122,-0.0144,-0.0131,-0.0181,-0.0174,-0.0217,-0.0256,-0.0291,-0.0292,-0.0243,-0.0196,-0.0153,-0.0053,-0.0034,0,0,0,-0.0109,-0.0101,-0.0103,-0.0102,-0.012,-0.0124,-0.0175,-0.0199,-0.0232,-0.0264,-0.0254,-0.0225,-0.02,-0.0158,-0.0143,-0.0231,-0.0302,-0.0302,-0.0302,-0.0059,-0.0067,-0.0045,-0.0055,-0.006,-0.0092,-0.0102,-0.0145,-0.0197,-0.0204,-0.0184,-0.0117,-0.0072,-0.006,-0.0153,-0.0208,-0.0208,-0.0208,-0.0207,-0.001,0.001,0.0003,0.002,0.0011,0.0009,-0.0034,-0.0069,-0.0081,-0.0138,-0.0118,-0.0105,-0.0039,-0.0145,-0.0204,-0.0204,-0.0205,-0.0205,-0.0205,0.0032,0.0044,0.0051,0.0082,0.0103,0.0076,0.0118,0.0058,-0.0006,0.0012,0.005,0.0049,-0.0035,0.0018,0.0018,0.0019,0.0019,0.0019,0.0019,0.0076,0.0086,0.0121,0.0144,0.0176,0.0212,0.0204,0.0213,0.0192,0.0145,0.0145,-0.0017,-0.0048,-0.0047,0.0026,0.0025,0.0024,0.0023,0.0023,0.0133,0.0133,0.0193,0.023,0.0305,0.0395,0.0383,0.0431,0.0411,0.0424,0.0181,0.0206,0.02,0.0188,0.0195,0.0326,0.0326,0.0326,0.0326,0.0174,0.0175,0.0263,0.0334,0.0428,0.0482,0.0628,0.0638,0.0474,0.0362,0.0252,0.0195,0.0186,0.0174,0.0161,0.0164,0.0285,0.0285,0.0284,0.0218,0.0238,0.0311,0.0371,0.0479,0.0596,0.0739,0.0795,0.052,0.0267,0.0112,0.0114,0.0007,0.0001,-0.0041,-0.0051,-0.0054,0,0]}],[{"header":{"parameterUnit":"m.s-1","parameterCategory":2,"la1":30.2992,"la2":30.254,"lo1":-89.0895,"lo2":-89.0443,"dy":0.0025,"dx":0.0025,"nx":19,"ny":19,"refTime":"2026-04-08T09:00:00:Z","depth":"2","parameterNumber":2,"parameterNumberName":"U-component_of_CURRENTS"},"data":[0,0,0,0.2044,0.2045,0.2076,0.2076,0.2097,0.2097,0,0,0,0,0,0,0,0,0,0,0,0.2029,0.2029,0.2044,0.2045,0.2076,0.2076,0.2097,0.2097,0,0,0,0,0,0,0,0,0,0,0,0.2029,0.2029,0.203,0.2045,0.2076,0.2076,0.2097,0.2076,0,0,0,0,0,0,0,0,0,0,0.2047,0.2035,0.2029,0.203,0.2045,0.2076,0.2076,0.2075,0.2077,0.208,0,0.209,0,0.21,0.2099,0.2099,0,0,0,0.2036,0.2033,0.2049,0.203,0.2046,0.2076,0.206,0.2077,0.2079,0.2083,0.209,0.2091,0.21,0.2099,0.2099,0.2163,0.2164,0,0,0.2035,0.2027,0.2047,0.205,0.206,0.2059,0.2061,0.2078,0.2079,0.209,0.2092,0.2101,0.21,0.21,0.2163,0.2163,0,0,0,0.2035,0.2026,0.204,0.2049,0.206,0.206,0.2062,0.2078,0.2085,0.2092,0.2101,0.21,0.21,0.2162,0.2163,0.2202,0,0,0,0.2034,0.2027,0.204,0.2034,0.206,0.2072,0.2062,0.2084,0.2086,0.2101,0.21,0.21,0.2162,0.2163,0.22,0.2212,0,0,0,0.2026,0.2026,0.2033,0.2034,0.2053,0.2072,0.2079,0.2084,0.2092,0.2099,0.21,0.2161,0.2162,0.2198,0.2208,0.2255,0,0,0,0.2012,0.2022,0.2033,0.2051,0.2053,0.2088,0.2079,0.2098,0.2106,0.21,0.2162,0.2163,0.2197,0.2206,0.2252,0.222,0.2228,0,0,0.2016,0.2022,0.2034,0.2046,0.2077,0.2083,0.2126,0.2129,0.2126,0.2152,0.2153,0.22,0.2208,0.2254,0.2289,0.2295,0,0,0,0.203,0.2036,0.2049,0.2071,0.21,0.2134,0.2145,0.2162,0.2191,0.2139,0.2214,0.2218,0.2245,0.2222,0.2227,0.2169,0.2168,0.2168,0.2168,0.2004,0.2031,0.2052,0.2089,0.212,0.217,0.2206,0.2233,0.2223,0.2249,0.226,0.2334,0.2309,0.2313,0.2274,0.2274,0.2274,0.2274,0.2274,0.2003,0.2006,0.2056,0.2085,0.2136,0.218,0.2261,0.2279,0.2346,0.2315,0.234,0.2276,0.2321,0.2278,0.2277,0.2277,0.2276,0.2276,0.2276,0.1969,0.1972,0.2003,0.2047,0.2105,0.2179,0.2251,0.2319,0.2374,0.241,0.2388,0.2387,0.2355,0.2425,0.2426,0.2426,0.2426,0.2426,0.2427,0.1908,0.1939,0.1949,0.2004,0.2033,0.2109,0.2241,0.2312,0.2405,0.2431,0.243,0.2385,0.238,0.2364,0.2431,0.243,0.2429,0.2429,0.2429,0.1841,0.1857,0.1869,0.189,0.196,0.1977,0.2142,0.2289,0.239,0.2432,0.245,0.2448,0.2434,0.2428,0.2414,0.249,0.249,0.249,0.249,0.1778,0.1794,0.1791,0.1805,0.1847,0.1912,0.1957,0.2063,0.2244,0.2292,0.23,0.2237,0.224,0.2211,0.221,0.2189,0.2207,0.2206,0.2205,0.1725,0.1743,0.1711,0.174,0.178,0.182,0.1787,0.1761,0.1943,0.2187,0.2178,0.2485,0.2413,0.241,0.2379,0.2373,0.2345,0,0]},{"header":{"parameterUnit":"m.s-1","parameterCategory":2,"la1":30.2992,"la2":30.254,"lo1":-89.0895,"lo2":-89.0443,"dy":0.0025,"dx":0.0025,"nx":19,"ny":19,"refTime":"2026-04-08T09:00:00:Z","depth":"2","parameterNumber":3,"parameterNumberName":"V-component_of_CURRENTS"},"data":[0,0,0,-0.0128,-0.0129,-0.017,-0.017,-0.023,-0.023,0,0,0,0,0,0,0,0,0,0,0,-0.0113,-0.0113,-0.0128,-0.0129,-0.017,-0.017,-0.023,-0.023,0,0,0,0,0,0,0,0,0,0,0,-0.0113,-0.0113,-0.0113,-0.0129,-0.017,-0.017,-0.0229,-0.0199,0,0,0,0,0,0,0,0,0,0,-0.0159,-0.0139,-0.0113,-0.0113,-0.0129,-0.017,-0.017,-0.0197,-0.0201,-0.0211,0,-0.0211,0,-0.0219,-0.0234,-0.0234,0,0,0,-0.0137,-0.0136,-0.0148,-0.0113,-0.0129,-0.017,-0.0154,-0.0199,-0.0203,-0.0215,-0.0212,-0.0214,-0.022,-0.0234,-0.0234,-0.0254,-0.0254,0,0,-0.0134,-0.0123,-0.0145,-0.015,-0.0133,-0.0152,-0.0155,-0.0201,-0.0202,-0.0212,-0.0216,-0.0221,-0.0234,-0.0235,-0.0255,-0.0254,0,0,0,-0.0123,-0.0121,-0.0131,-0.0147,-0.0153,-0.0153,-0.0156,-0.02,-0.0204,-0.0216,-0.0222,-0.0235,-0.0235,-0.0255,-0.0255,-0.0196,0,0,0,-0.0122,-0.0114,-0.013,-0.0124,-0.0152,-0.0176,-0.0154,-0.02,-0.0206,-0.0222,-0.0235,-0.0236,-0.0255,-0.0255,-0.0198,-0.0147,0,0,0,-0.0112,-0.0113,-0.0115,-0.0123,-0.0138,-0.0175,-0.0181,-0.0202,-0.0209,-0.0234,-0.0236,-0.0255,-0.0255,-0.02,-0.0152,-0.011,0,0,0,-0.0103,-0.0091,-0.0115,-0.0104,-0.0137,-0.0141,-0.0181,-0.0195,-0.0212,-0.0235,-0.0255,-0.0255,-0.02,-0.0154,-0.0113,-0.0039,-0.002,0,0,-0.008,-0.0089,-0.0081,-0.0103,-0.0088,-0.0137,-0.0129,-0.0172,-0.0211,-0.0242,-0.0243,-0.0198,-0.0152,-0.011,-0.0017,0.0001,0,0,0,-0.0068,-0.0061,-0.0061,-0.006,-0.0075,-0.0079,-0.0129,-0.0153,-0.0186,-0.0218,-0.0206,-0.0179,-0.0155,-0.0117,-0.0102,-0.0253,-0.0253,-0.0253,-0.0253,-0.0021,-0.0028,-0.0005,-0.0012,-0.0015,-0.0046,-0.0056,-0.0099,-0.015,-0.0158,-0.0139,-0.0074,-0.0034,-0.0022,-0.0162,-0.0161,-0.0161,-0.0161,-0.0161,0.0027,0.0047,0.0043,0.0061,0.0054,0.0053,0.0012,-0.0025,-0.0037,-0.0094,-0.0074,-0.0066,-0.0003,-0.0156,-0.0157,-0.0158,-0.0158,-0.0159,-0.0159,0.0066,0.0078,0.0086,0.0119,0.014,0.0115,0.0157,0.0099,0.0035,0.0052,0.0083,0.0082,-0.0019,0.0055,0.0056,0.0056,0.0057,0.0057,0.0057,0.0105,0.0117,0.0152,0.0177,0.0208,0.0244,0.0238,0.0247,0.0223,0.0174,0.0174,-0.0001,-0.0008,-0.0007,0.0063,0.0062,0.0061,0.0061,0.006,0.0159,0.0159,0.0219,0.0255,0.0331,0.0417,0.041,0.0452,0.0432,0.0442,0.0237,0.0231,0.0225,0.0213,0.0219,0.0344,0.0344,0.0344,0.0344,0.0197,0.0198,0.0284,0.0355,0.0448,0.0499,0.0624,0.0609,0.0516,0.0431,0.0426,0.0383,0.0371,0.0369,0.0353,0.0359,0.0521,0.0521,0.0522,0.0238,0.0258,0.0329,0.0389,0.0497,0.0605,0.0709,0.0674,0.0542,0.0524,0.0409,0.0365,0.0288,0.0274,0.0255,0.0236,0.0239,0,0]}],[{"header":{"parameterUnit":"m.s-1","parameterCategory":2,"la1":30.2992,"la2":30.254,"lo1":-89.0895,"lo2":-89.0443,"dy":0.0025,"dx":0.0025,"nx":19,"ny":19,"refTime":"2026-04-08T09:00:00:Z","depth":"4","parameterNumber":2,"parameterNumberName":"U-component_of_CURRENTS"},"data":[0,0,0,0.1468,0.1471,0.1583,0.1584,0.1669,0.167,0,0,0,0,0,0,0,0,0,0,0,0.1436,0.1437,0.1468,0.1471,0.1583,0.1584,0.1669,0.167,0,0,0,0,0,0,0,0,0,0,0,0.1435,0.1437,0.1438,0.1471,0.1583,0.1584,0.1669,0.1599,0,0,0,0,0,0,0,0,0,0,0.1497,0.148,0.1436,0.1438,0.1472,0.1583,0.1584,0.1596,0.1603,0.1602,0,0.1631,0,0.1649,0.1674,0.1675,0,0,0,0.147,0.1474,0.1499,0.1438,0.1473,0.1583,0.1532,0.16,0.1608,0.1611,0.1632,0.1636,0.1651,0.1675,0.1675,0.1758,0.1759,0,0,0.1464,0.1458,0.1494,0.1505,0.1516,0.1529,0.1536,0.1606,0.1621,0.1632,0.1638,0.1652,0.1675,0.1676,0.1758,0.1759,0,0,0,0.1447,0.1454,0.1479,0.1501,0.1525,0.1532,0.154,0.1618,0.1626,0.1639,0.1653,0.1676,0.1676,0.1758,0.1758,0.1782,0,0,0,0.1443,0.1444,0.1476,0.1474,0.1524,0.1582,0.1551,0.1621,0.163,0.1653,0.1676,0.1677,0.1757,0.1758,0.1781,0.179,0,0,0,0.1428,0.1442,0.1458,0.1473,0.1521,0.1581,0.1594,0.1624,0.1638,0.1675,0.1677,0.1757,0.1758,0.1779,0.1787,0.183,0,0,0,0.1412,0.1433,0.1459,0.1491,0.152,0.1576,0.1594,0.1647,0.1681,0.1676,0.1757,0.1758,0.1779,0.1786,0.1829,0.1611,0,0,0,0.1419,0.1434,0.145,0.1475,0.1518,0.156,0.1617,0.1672,0.1693,0.1729,0.1731,0.1781,0.1787,0.183,0.167,0,0,0,0,0.1439,0.1452,0.1471,0.1509,0.1554,0.161,0.1664,0.1694,0.1757,0.1719,0.1794,0.1798,0.1824,0.1692,0.1763,0.1763,0.1763,0.1763,0.1762,0.1422,0.145,0.148,0.1525,0.157,0.165,0.1701,0.1755,0.1771,0.1809,0.1827,0.1889,0.175,0.1839,0.1839,0.1839,0.1839,0.184,0.184,0.1412,0.142,0.1482,0.1524,0.1593,0.1656,0.1749,0.1787,0.1871,0.1862,0.1887,0.1737,0.1842,0.1842,0.1841,0.1841,0.1841,0.1841,0.1841,0.1373,0.138,0.1431,0.1499,0.1581,0.1672,0.1746,0.1831,0.1896,0.1931,0.1813,0.1916,0.1904,0.1959,0.1959,0.1959,0.1959,0.196,0.196,0.1303,0.135,0.1387,0.147,0.1525,0.1616,0.1758,0.1809,0.1899,0.1822,0.1954,0.1929,0.1925,0.1912,0.1963,0.1963,0.1962,0.1962,0.1962,0.1232,0.1272,0.1311,0.1362,0.1464,0.1508,0.1667,0.1718,0.1764,0.1748,0.1764,0.1773,0.1748,0.1749,0.1728,0.1727,0.1725,0.1722,0,0.1179,0.1201,0.1249,0.1293,0.1331,0.1434,0.1436,0.1522,0.1607,0.1553,0.1777,0.1793,0.1798,0.1769,0.1766,0.1739,0,0,0,0.1136,0.1161,0.117,0.1228,0.126,0.131,0.1426,0.1407,0.1587,0.1567,0.1657,0.1674,0.1849,0.1974,0.1959,0.1954,0.1931,0,0]},{"header":{"parameterUnit":"m.s-1","parameterCategory":2,"la1":30.2992,"la2":30.254,"lo1":-89.0895,"lo2":-89.0443,"dy":0.0025,"dx":0.0025,"nx":19,"ny":19,"refTime":"2026-04-08T09:00:00:Z","depth":"4","parameterNumber":3,"parameterNumberName":"V-component_of_CURRENTS"},"data":[0,0,0,0.0021,0.002,-0.0008,-0.0008,-0.0045,-0.0045,0,0,0,0,0,0,0,0,0,0,0,0.003,0.003,0.0021,0.002,-0.0008,-0.0008,-0.0045,-0.0045,0,0,0,0,0,0,0,0,0,0,0,0.0031,0.003,0.003,0.002,-0.0008,-0.0008,-0.0045,-0.0025,0,0,0,0,0,0,0,0,0,0,0.0002,0.0014,0.003,0.003,0.002,-0.0008,-0.0008,-0.0024,-0.0026,-0.003,0,-0.0031,0,-0.0036,-0.0047,-0.0047,0,0,0,0.0014,0.0015,0.0009,0.003,0.002,-0.0008,0.0003,-0.0025,-0.0028,-0.0033,-0.0031,-0.0033,-0.0037,-0.0047,-0.0047,-0.0032,-0.0032,0,0,0.0016,0.0023,0.0011,0.0008,0.0017,0.0004,0.0002,-0.0027,-0.0028,-0.0031,-0.0034,-0.0037,-0.0047,-0.0048,-0.0033,-0.0032,0,0,0,0.0024,0.0024,0.0018,0.0009,0.0005,0.0003,0.0001,-0.0026,-0.0028,-0.0034,-0.0038,-0.0048,-0.0048,-0.0033,-0.0033,0.0024,0,0,0,0.0025,0.0029,0.0019,0.0022,0.0006,-0.0011,0.0002,-0.0026,-0.0029,-0.0038,-0.0048,-0.0048,-0.0034,-0.0033,0.0021,0.0054,0,0,0,0.0031,0.003,0.0028,0.0023,0.0013,-0.001,-0.0014,-0.0027,-0.0032,-0.0047,-0.0048,-0.0034,-0.0033,0.0019,0.005,0.0068,0,0,0,0.0036,0.0048,0.0029,0.0042,0.0014,0.0024,-0.0014,-0.0018,-0.0028,-0.0048,-0.0034,-0.0033,0.0019,0.0048,0.0065,0.007,0,0,0,0.0057,0.005,0.006,0.0042,0.0067,0.0027,0.0053,0.0017,-0.0015,-0.0026,-0.0026,0.0022,0.005,0.0067,0.0123,0,0,0,0,0.0071,0.0081,0.0084,0.0092,0.0087,0.0094,0.006,0.0048,0.0032,-0.0016,0.0025,0.004,0.0049,0.0046,-0.0028,-0.0028,-0.0029,-0.0029,-0.0029,0.011,0.0112,0.0139,0.0144,0.0151,0.0139,0.014,0.0118,0.0077,0.008,0.0088,0.0144,0.0143,0.0084,0.0085,0.0085,0.0085,0.0085,0.0085,0.0157,0.0176,0.0185,0.021,0.0216,0.0231,0.022,0.0193,0.0189,0.0148,0.0153,0.0108,0.0091,0.009,0.0089,0.0088,0.0088,0.0088,0.0087,0.0187,0.0198,0.0211,0.0253,0.0286,0.0284,0.0322,0.0292,0.0244,0.0254,0.0226,0.0181,0.0174,0.0245,0.0246,0.0246,0.0246,0.0246,0.0246,0.0208,0.0226,0.0259,0.0298,0.0329,0.0366,0.0376,0.0372,0.0325,0.0299,0.0265,0.0197,0.0192,0.0182,0.025,0.0249,0.0249,0.0249,0.0248,0.024,0.0244,0.0297,0.0331,0.0403,0.0436,0.045,0.0429,0.0423,0.039,0.0315,0.0311,0.0288,0.0281,0.0273,0.037,0.0371,0.0371,0,0.0257,0.0264,0.0327,0.0386,0.0452,0.0477,0.0495,0.0482,0.0416,0.0407,0.0404,0.032,0.0316,0.029,0.0284,0.0275,0,0,0,0.0277,0.0294,0.0338,0.0392,0.0467,0.0487,0.0499,0.0484,0.043,0.0421,0.0379,0.0377,0.0319,0.0261,0.0216,0.021,0.0192,0,0]}]]